Location: Pianadetto
(44.4000°N, 10.1000°E)
Time: 03:09:20
(UTC+00:00)

Meteor 1-28 Rocket - Pass Details

Date: 26 May 2022
Orbit: 499 x 518 km, 97.4° (Epoch: 26 June)

Event Time Altitude Azimuth Distance (km) Brightness Sun altitude
Exits shadow 02:03:53 24° 203° (SSW) 1,084 4.2 -14.2°
Maximum altitude 02:05:43 43° 261° (W) 725 3.6 -14.0°
Drops below altitude 10° 02:09:18 10° 334° (NNW) 1,736 6.2 -13.5°
Sets 02:11:29 0° 342° (NNW) 2,624 7.2 -13.3°
